This demonstration page uses our WeatherBlox Daily Observations layout. Learn more.

41.55636, -103.73856

Hourly Observations for January 7, 2019

Temp ( °F °C ) Dew Point ( °F °C ) Humidity (%) Winds ( mph kmh ) Pressure ( in mb ) Visibility ( mi km ) Precip ( " mm )
12:53 am 00:53 Clear 37 2.8 23 -5 57 57 W 18 30 29.65 1004 10 16.09344 0 0
1:53 am 01:53 Clear 35 1.7 21 -6.1 57 57 W 14 22 29.68 1005 10 16.09344 0 0
2:53 am 02:53 Clear 36 2.2 19 -7.2 50 50 W 24 39 29.68 1005 10 16.09344 0 0
3:53 am 03:53 Clear 33 0.6 18 -7.8 54 54 W 16 26 29.74 1007 10 16.09344 0 0
4:53 am 04:53 Clear 27 -2.8 17 -8.3 66 66 NW 8 13 29.77 1008 10 16.09344 0 0
5:53 am 05:53 Clear 32 0 17 -8.3 54 54 W 12 19 29.77 1008 10 16.09344 0 0
6:53 am 06:53 Clear 26 -3.3 17 -8.3 69 69 WNW 8 13 29.8 1009 10 16.09344 0 0
7:53 am 07:53 Sunny 27 -2.8 18 -7.8 69 69 NNW 6 9 29.77 1008 10 16.09344 0 0
8:53 am 08:53 Mostly Sunny 31 -0.6 19 -7.2 61 61 WNW 3 6 29.77 1008 10 16.09344 0 0
9:53 am 09:53 Sunny 33 0.6 21 -6.1 61 61 ESE 3 6 29.77 1008 10 16.09344 0 0
10:53 am 10:53 Sunny 39 3.9 22 -5.6 50 50 SSE 6 9 29.74 1007 10 16.09344 0 0
11:53 am 11:53 Sunny 47 8.3 23 -5 39 39 WSW 9 15 29.71 1006 10 16.09344 0 0
12:53 pm 12:53 Partly Cloudy 51 10.6 22 -5.6 32 32 W 33 54 29.65 1004 10 16.09344 0 0
1:53 pm 13:53 Mostly Sunny 52 11.1 23 -5 32 32 W 26 43 29.68 1005 10 16.09344 0 0
2:38 pm 14:38 Mostly Cloudy with Haze 51 10.6 21 -6.1 31 31 WNW 33 54 29.68 1005 5 8.04672 0 0
2:53 pm 14:53 Mostly Cloudy with Haze 51 10.6 21 -6.1 31 31 W 38 61 29.71 1006 6 9.656064 0 0
3:13 pm 15:13 Partly Cloudy 50 10 22 -5.6 33 33 WNW 32 52 29.68 1005 10 16.09344 0 0
3:53 pm 15:53 Mostly Cloudy 48 8.9 25 -3.9 41 41 W 30 48 29.74 1007 10 16.09344 0 0
4:53 pm 16:53 Clear 45 7.2 19 -7.2 35 35 W 25 41 29.8 1009 10 16.09344 0 0
5:53 pm 17:53 Clear 41 5 13 -10.6 32 32 W 33 54 29.88 1012 10 16.09344 0 0
6:53 pm 18:53 Cloudy 40 4.4 10 -12.2 29 29 WNW 23 37 29.97 1015 10 16.09344 0 0
7:53 pm 19:53 Clear 34 1.1 25 -3.9 70 70 NW 18 30 30.06 1018 10 16.09344 0 0
8:53 pm 20:53 Clear 33 0.6 20 -6.7 58 58 W 13 20 30.09 1019 10 16.09344 0 0
9:53 pm 21:53 Clear 31 -0.6 12 -11.1 45 45 WNW 14 22 30.15 1021 10 16.09344 0 0
10:53 pm 22:53 Clear 29 -1.7 12 -11.1 49 49 W 12 19 30.15 1021 10 16.09344 0 0
11:53 pm 23:53 Clear 26 -3.3 11 -11.7 53 53 NW 12 19 30.15 1021 10 16.09344 0 0

Powered by AerisWeather